Preview of NWS' New Version of Forecast
This preview is not operational and should not be used for support decisions.

Regional Weather Roundup (RWR)

Issued by Gray - Portland, ME (GYX)

                            
000
ASUS41 KGYX 180905
RWRGYX
WEATHER ROUNDUP FOR MAINE AND NEW HAMPSHIRE
NATIONAL WEATHER SERVICE GRAY ME
500 AM EDT THU APR 18 2019

MEZ002-005-006-010-012-015-018-020-021-024-026-027-029-181000-
MAINE
  
CITY           SKY/WX    TMP DP  RH WIND       PRES   REMARKS
PORTLAND       FAIR      31  26  82 CALM      30.24S                  
SANFORD        FAIR      32  28  85 SW5       30.24S                  
BAR HARBOR     FAIR      25  23  92 CALM      30.26S                  
WISCASSET      FAIR      27  25  92 CALM      30.26R                  
ROCKLAND       FAIR      29  28  96 CALM      30.25R                  
FRYEBURG       FAIR      23  22  96 CALM      30.22S                  
LEWISTONAUBURN FAIR      25  23  92 CALM      30.23F                  
AUGUSTA        FAIR      31  26  82 S5        30.23S                  
WATERVILLE     FAIR      28  23  81 S3        30.21R                  
BANGOR         FAIR      27  22  81 CALM      30.25R                  
GREENVILLE       N/A     34  17  50 E8        30.17S                  
MILLINOCKET    FAIR      26  21  81 CALM      30.26R                  
HOULTON        FAIR      21  19  92 CALM      30.23R                  
PRESQUE ISLE   FAIR      20  19  96 CALM      30.23S                  
FRENCHVILLE    FAIR      32  18  56 SE3       30.19R                  
CARIBOU        FAIR      25  19  78 CALM      30.21S                  
$$

NHZ002-005-008-009-011-012-014-181000-
NEW HAMPSHIRE
  
CITY           SKY/WX    TMP DP  RH WIND       PRES   REMARKS
PORTSMOUTH     PTCLDY    37  32  83 S5        30.23R                  
ROCHESTER      FAIR      31  29  92 CALM      30.23S                  
NASHUA         FAIR      37  32  82 CALM      30.24R                  
MANCHESTER     FAIR      42  28  57 S3        30.22R                  
CONCORD        FAIR      34  26  72 CALM      30.22S                  
LACONIA        FAIR      28  27  96 CALM      30.22S                  
PLYMOUTH       FAIR      27  26  96 CALM      30.22S                  
BERLIN         FAIR      23  21  92 CALM      30.17F                  
WHITEFIELD     FAIR      26  21  81 CALM      30.15F                  
JAFFREY        MOCLDY    37  30  75 S3        30.21R                  
KEENE          MOCLDY    36  32  85 CALM      30.21S                  
LEBANON        FAIR      29  23  78 S3        30.17F                  
MT WASHINGTON  PTCLDY    23  16  74 S29G35      N/A  WCI   6          
$$

VTZ005-007-008-181000-
VERMONT
  
CITY           SKY/WX    TMP DP  RH WIND       PRES   REMARKS
ST JOHNSBURY     N/A     27  25  92 MISG      30.16S                  
MONTPELIER     FAIR      28  21  75 CALM      30.16F                  
$$

MAZ007-012-024-CTZ003-RIZ002-NYZ038-NYZ072-181000-
SOUTHERN NEW ENGLAND AND NY
  
CITY           SKY/WX    TMP DP  RH WIND       PRES   REMARKS
BOSTON         MOCLDY    44  35  70 SW7       30.26R                  
WORCESTER      CLOUDY    40  31  70 S9        30.22R                  
NANTUCKET      FAIR      37  33  85 SE7       30.26F                  
PROVIDENCE     FAIR      40  36  86 W3        30.26R                  
HARTFORD       CLOUDY    44  38  79 S5        30.22S                  
ALBANY         LGT RAIN  48  32  53 SE10      30.13F                  
NEW YORK CITY  MOCLDY    52  36  54 SE10      30.16F                  
$$

ANZ081-ANZ082-ANZ150-NHZ014-MEZ023>029-181000-
COASTAL MARINE OBSERVATIONS
  
STATION/POSITION TIME  TEMP    WIND        PRES    WAVE
                       AIR SEA DIR/SP/G            HT/PER
                 (UTC) (F)     (DEG/KT/KT) (MB)    (FT/S)
ISLE OF SHOALS   0800   44     210/ 13/ 14 1023.8R
CASHES LEDGE BUO 0850   41 41              1025.1R   2/ 4
$$

.............KEY..............
   WCI - WIND CHILL
   TC  - TEMPERATURE IN CELSIUS
   VSB - VISIBILITY IN MILES
   HX  - HEAT INDEX
   FAIR- INDICATES FEW OR NO CLOUDS BELOW 12,000 FT, WITH NO 
         SIGNIFICANT WEATHER AND/OR OBSTRUCTIONS TO VISIBILITY.